Location: Saratoga Springs
(43.0831°N, 73.7850°W)
Time: 12:51:55
(UTC-04:00)

Transit 4A - Pass Details

Date: 18 April 2024
Orbit: 871 x 971 km, 66.8° (Epoch: 20 May)

Event Time Altitude Azimuth Distance (km) Brightness Sun altitude
Rises 21:24:46 0° 335° (NNW) 3,470 12.0 -17.7°
Reaches altitude 10° 21:27:41 10° 348° (NNW) 2,527 10.9 -18.1°
Maximum altitude 21:32:32 27° 44° (NE) 1,638 9.1 -18.8°
Enters shadow 21:34:55 20° 80° (E) 1,893 9.1 -19.2°
